| time (UTC) | temp F | wind direction | speed knots | gust knots | rain 1hr in | rain 24hr in | rain mn in | humidity % | barometer mb |
| 20260508170903 | 73 | 314 | 2.6 | 7.0 | 0.00 | 0.00 | 0.00 | 51 | 1016.4 |
| 20260508170003 | 74 | 317 | 1.7 | 2.6 | 0.00 | 0.00 | 0.00 | 49 | 1016.3 |
| 20260508165403 | 74 | 321 | 0.9 | 2.6 | 0.00 | 0.00 | 0.00 | 48 | 1016.4 |
| 20260508164503 | 74 | 313 | 1.7 | 2.6 | 0.00 | 0.00 | 0.00 | 46 | 1016.1 |
| 20260508163604 | 75 | 315 | 0.9 | 2.6 | 0.00 | 0.00 | 0.00 | 44 | 1016.1 |
| 20260508162703 | 75 | 319 | 0.0 | 1.7 | 0.00 | 0.00 | 0.00 | 43 | 1016.0 |
| 20260508161802 | 76 | 335 | 0.9 | 1.7 | 0.00 | 0.00 | 0.00 | 41 | 1016.0 |
| 20260508160923 | 76 | 350 | 0.9 | 2.6 | 0.00 | 0.00 | 0.00 | 40 | 1015.8 |
| 20260508160003 | 76 | 350 | 1.7 | 2.6 | 0.00 | 0.00 | 0.00 | 39 | 1015.7 |
| 20260508155403 | 77 | 352 | 1.7 | 6.1 | 0.00 | 0.00 | 0.00 | 39 | 1015.6 |
| 20260508154503 | 77 | 348 | 2.6 | 6.1 | 0.00 | 0.00 | 0.00 | 38 | 1015.5 |
| 20260508153624 | 78 | 334 | 2.6 | 7.0 | 0.00 | 0.00 | 0.00 | 37 | 1015.3 |
| 20260508152724 | 79 | 324 | 3.5 | 7.0 | 0.00 | 0.00 | 0.00 | 36 | 1015.4 |
| 20260508151802 | 79 | 330 | 2.6 | 8.7 | 0.00 | 0.00 | 0.00 | 37 | 1015.3 |
| 20260508150903 | 79 | 318 | 3.5 | 8.7 | 0.00 | 0.00 | 0.00 | 37 | 1015.3 |
| 20260508150003 | 79 | 332 | 2.6 | 7.0 | 0.00 | 0.00 | 0.00 | 36 | 1015.2 |
| 20260508145403 | 79 | 331 | 4.3 | 9.6 | 0.00 | 0.00 | 0.00 | 36 | 1015.1 |
| 20260508144503 | 79 | 313 | 6.1 | 9.6 | 0.00 | 0.00 | 0.00 | 38 | 1015.3 |
| 20260508143603 | 80 | 309 | 5.2 | 11.3 | 0.00 | 0.00 | 0.00 | 39 | 1015.2 |
| 20260508142703 | 79 | 310 | 6.1 | 11.3 | 0.00 | 0.00 | 0.00 | 39 | 1015.3 |
| 20260508141803 | 79 | 297 | 7.0 | 9.6 | 0.00 | 0.00 | 0.00 | 39 | 1015.2 |
| 20260508140924 | 79 | 302 | 5.2 | 9.6 | 0.00 | 0.00 | 0.00 | 40 | 1015.1 |
| 20260508140003 | 79 | 300 | 6.1 | 12.2 | 0.00 | 0.00 | 0.00 | 43 | 1015.3 |
| 20260508135424 | 78 | 302 | 6.1 | 13.0 | 0.00 | 0.00 | 0.00 | 42 | 1015.4 |
| 20260508134502 | 79 | 323 | 4.3 | 9.6 | 0.00 | 0.00 | 0.00 | 42 | 1015.1 |
| 20260508133603 | 79 | 342 | 4.3 | 7.8 | 0.00 | 0.00 | 0.00 | 38 | 1015.3 |
| 20260508132703 | 78 | 316 | 6.1 | 11.3 | 0.00 | 0.00 | 0.00 | 36 | 1015.5 |
| 20260508131803 | 79 | 293 | 5.2 | 9.6 | 0.00 | 0.00 | 0.00 | 41 | 1015.5 |
| 20260508130903 | 79 | 307 | 7.0 | 13.0 | 0.00 | 0.00 | 0.00 | 37 | 1015.5 |
| 20260508130002 | 79 | 302 | 7.0 | 13.0 | 0.00 | 0.00 | 0.00 | 38 | 1015.6 |
| 20260508125402 | 78 | 308 | 6.1 | 12.2 | 0.00 | 0.00 | 0.00 | 41 | 1015.6 |
| 20260508124503 | 78 | 324 | 6.1 | 13.0 | 0.00 | 0.00 | 0.00 | 36 | 1015.7 |
| 20260508123603 | 79 | 318 | 6.1 | 12.2 | 0.00 | 0.00 | 0.00 | 37 | 1015.8 |
| 20260508122724 | 78 | 318 | 6.1 | 11.3 | 0.00 | 0.00 | 0.00 | 41 | 1015.8 |
| 20260508121803 | 78 | 320 | 6.1 | 13.0 | 0.00 | 0.00 | 0.00 | 40 | 1016.0 |
| 20260508120902 | 78 | 297 | 6.1 | 12.2 | 0.00 | 0.00 | 0.00 | 43 | 1015.9 |
| 20260508120004 | 77 | 293 | 6.1 | 13.0 | 0.00 | 0.00 | 0.00 | 43 | 1016.1 |
| 20260508115424 | 78 | 312 | 5.2 | 13.0 | 0.00 | 0.00 | 0.00 | 40 | 1016.2 |
| 20260508114503 | 77 | 300 | 5.2 | 11.3 | 0.00 | 0.00 | 0.00 | 43 | 1016.4 |
| 20260508113624 | 77 | 301 | 5.2 | 11.3 | 0.00 | 0.00 | 0.00 | 44 | 1016.3 |
| 20260508112724 | 78 | 311 | 3.5 | 13.0 | 0.00 | 0.00 | 0.00 | 43 | 1016.3 |
| 20260508111803 | 77 | 299 | 6.1 | 12.2 | 0.00 | 0.00 | 0.00 | 44 | 1016.5 |
| 20260508110903 | 77 | 285 | 5.2 | 12.2 | 0.00 | 0.00 | 0.00 | 43 | 1016.7 |
| 20260508110003 | 78 | 312 | 5.2 | 13.0 | 0.00 | 0.00 | 0.00 | 42 | 1016.7 |
| 20260508105404 | 77 | 308 | 7.0 | 14.8 | 0.00 | 0.00 | 0.00 | 44 | 1016.8 |
| 20260508104503 | 77 | 298 | 6.1 | 11.3 | 0.00 | 0.00 | 0.00 | 43 | 1016.8 |
| 20260508103603 | 77 | 306 | 6.1 | 11.3 | 0.00 | 0.00 | 0.00 | 42 | 1016.9 |
| 20260508102703 | 77 | 306 | 5.2 | 9.6 | 0.00 | 0.00 | 0.00 | 41 | 1016.9 |
| 20260508101824 | 76 | 310 | 6.1 | 13.0 | 0.00 | 0.00 | 0.00 | 43 | 1017.1 |
| 20260508100904 | 76 | 306 | 7.8 | 13.9 | 0.00 | 0.00 | 0.00 | 40 | 1017.0 |
| 20260508100025 | 76 | 303 | 7.0 | 13.9 | 0.00 | 0.00 | 0.00 | 42 | 1017.4 |
| 20260508095403 | 76 | 298 | 5.2 | 9.6 | 0.00 | 0.00 | 0.00 | 41 | 1017.1 |
| 20260508094503 | 75 | 292 | 7.0 | 13.0 | 0.00 | 0.00 | 0.00 | 42 | 1017.4 |
| 20260508093603 | 76 | 314 | 5.2 | 13.0 | 0.00 | 0.00 | 0.00 | 42 | 1017.3 |
| 20260508092703 | 76 | 283 | 7.0 | 12.2 | 0.00 | 0.00 | 0.00 | 41 | 1017.6 |
| 20260508091803 | 75 | 304 | 6.1 | 12.2 | 0.00 | 0.00 | 0.00 | 43 | 1017.6 |
| 20260508090903 | 75 | 308 | 7.0 | 12.2 | 0.00 | 0.00 | 0.00 | 42 | 1017.6 |
| 20260508090003 | 74 | 304 | 6.1 | 11.3 | 0.00 | 0.00 | 0.00 | 44 | 1017.7 |
| 20260508085424 | 74 | 308 | 3.5 | 11.3 | 0.00 | 0.00 | 0.00 | 45 | 1017.6 |
| 20260508084503 | 72 | 298 | 2.6 | 8.7 | 0.00 | 0.00 | 0.00 | 51 | 1018.0 |
| 20260508083603 | 74 | 320 | 3.5 | 8.7 | 0.00 | 0.00 | 0.00 | 51 | 1018.3 |
| 20260508082703 | 74 | 343 | 3.5 | 7.8 | 0.00 | 0.00 | 0.00 | 53 | 1018.2 |
| 20260508081803 | 74 | 341 | 2.6 | 7.0 | 0.00 | 0.00 | 0.00 | 52 | 1018.3 |
| 20260508080925 | 73 | 335 | 1.7 | 7.0 | 0.00 | 0.00 | 0.00 | 54 | 1018.3 |
| 20260508080004 | 72 | 95 | 1.7 | 5.2 | 0.00 | 0.00 | 0.00 | 54 | 1018.3 |
| 20260508075403 | 72 | 318 | 2.6 | 7.0 | 0.00 | 0.00 | 0.00 | 56 | 1018.4 |
| 20260508074503 | 72 | 12 | 2.6 | 7.0 | 0.00 | 0.00 | 0.00 | 57 | 1018.5 |
| 20260508073625 | 71 | 43 | 0.9 | 2.6 | 0.00 | 0.00 | 0.00 | 56 | 1018.7 |
| 20260508072704 | 70 | 331 | 0.9 | 3.5 | 0.00 | 0.00 | 0.00 | 60 | 1018.8 |
| 20260508071824 | 71 | 69 | 0.9 | 3.5 | 0.00 | 0.00 | 0.00 | 60 | 1019.0 |
| 20260508070924 | 70 | 70 | 1.7 | 3.5 | 0.00 | 0.00 | 0.00 | 61 | 1019.1 |
| 20260508070003 | 69 | 18 | 0.9 | 3.5 | 0.00 | 0.00 | 0.00 | 62 | 1019.1 |
| 20260508065403 | 69 | 22 | 0.9 | 3.5 | 0.00 | 0.00 | 0.00 | 62 | 1019.1 |
| 20260508064503 | 67 | 347 | 1.7 | 5.2 | 0.00 | 0.00 | 0.00 | 64 | 1019.3 |
| 20260508063603 | 67 | 58 | 2.6 | 5.2 | 0.00 | 0.00 | 0.00 | 66 | 1019.4 |
| 20260508062703 | 67 | 47 | 1.7 | 5.2 | 0.00 | 0.00 | 0.00 | 67 | 1019.1 |
| 20260508061803 | 66 | 42 | 1.7 | 5.2 | 0.00 | 0.00 | 0.00 | 67 | 1019.4 |
| 20260508060905 | 64 | 20 | 1.7 | 5.2 | 0.00 | 0.00 | 0.00 | 69 | 1019.7 |
| 20260508060003 | 65 | 87 | 2.6 | 6.1 | 0.00 | 0.00 | 0.00 | 69 | 1019.6 |
| 20260508055403 | 65 | 58 | 1.7 | 6.1 | 0.00 | 0.00 | 0.00 | 70 | 1019.5 |
| 20260508054504 | 63 | 311 | 0.9 | 3.5 | 0.00 | 0.00 | 0.00 | 72 | 1019.6 |
| 20260508053603 | 63 | 308 | 1.7 | 3.5 | 0.00 | 0.00 | 0.00 | 74 | 1019.4 |
| 20260508052724 | 63 | 311 | 0.9 | 3.5 | 0.00 | 0.00 | 0.00 | 74 | 1019.5 |
| 20260508051803 | 62 | 323 | 1.7 | 5.2 | 0.00 | 0.00 | 0.00 | 76 | 1019.7 |
| 20260508050903 | 61 | 302 | 1.7 | 6.1 | 0.00 | 0.00 | 0.00 | 77 | 1019.4 |
| 20260508050004 | 60 | 304 | 2.6 | 5.2 | 0.00 | 0.00 | 0.00 | 78 | 1019.6 |
| 20260508045405 | 60 | 306 | 2.6 | 5.2 | 0.00 | 0.00 | 0.00 | 78 | 1019.5 |
| 20260508044505 | 59 | 303 | 2.6 | 3.5 | 0.00 | 0.00 | 0.00 | 79 | 1019.5 |
| 20260508043625 | 58 | 315 | 2.6 | 5.2 | 0.00 | 0.00 | 0.00 | 80 | 1019.6 |
| 20260508042724 | 58 | 311 | 2.6 | 6.1 | 0.00 | 0.00 | 0.00 | 81 | 1019.5 |
| 20260508041824 | 58 | 309 | 3.5 | 7.0 | 0.00 | 0.00 | 0.00 | 81 | 1019.5 |
| 20260508040904 | 58 | 308 | 3.5 | 6.1 | 0.00 | 0.00 | 0.00 | 81 | 1019.4 |
| 20260508040003 | 58 | 307 | 2.6 | 5.2 | 0.00 | 0.00 | 0.00 | 81 | 1019.5 |
| 20260508035403 | 57 | 308 | 2.6 | 5.2 | 0.00 | 0.00 | 0.00 | 81 | 1019.2 |
| 20260508034503 | 57 | 314 | 3.5 | 6.1 | 0.00 | 0.00 | 0.00 | 81 | 1019.5 |
| 20260508033604 | 57 | 310 | 3.5 | 6.1 | 0.00 | 0.00 | 0.00 | 82 | 1019.4 |
| 20260508032724 | 56 | 312 | 2.6 | 5.2 | 0.00 | 0.00 | 0.00 | 82 | 1019.3 |
| 20260508031803 | 56 | 310 | 3.5 | 5.2 | 0.00 | 0.00 | 0.00 | 82 | 1019.2 |
| 20260508030924 | 55 | 312 | 4.3 | 6.1 | 0.00 | 0.00 | 0.00 | 82 | 1019.1 |
| 20260508030004 | 55 | 312 | 3.5 | 6.1 | 0.00 | 0.00 | 0.00 | 82 | 1019.1 |
| 20260508025424 | 55 | 312 | 3.5 | 6.1 | 0.00 | 0.00 | 0.00 | 82 | 1018.8 |
| 20260508024503 | 55 | 302 | 3.5 | 5.2 | 0.00 | 0.00 | 0.00 | 82 | 1018.8 |
| 20260508023603 | 56 | 300 | 2.6 | 5.2 | 0.00 | 0.00 | 0.00 | 82 | 1018.9 |
| 20260508022706 | 56 | 306 | 2.6 | 6.1 | 0.00 | 0.00 | 0.00 | 81 | 1018.9 |
| 20260508021803 | 56 | 313 | 2.6 | 3.5 | 0.00 | 0.00 | 0.00 | 81 | 1018.8 |
| 20260508020903 | 56 | 297 | 0.9 | 2.6 | 0.00 | 0.00 | 0.00 | 82 | 1018.7 |
| 20260508020003 | 56 | 311 | 0.0 | 1.7 | 0.00 | 0.00 | 0.00 | 83 | 1018.7 |
| 20260508015404 | 56 | 328 | 0.0 | 1.7 | 0.00 | 0.00 | 0.00 | 82 | 1018.5 |
| 20260508014504 | 56 | 338 | 0.0 | 1.7 | 0.00 | 0.00 | 0.00 | 82 | 1018.2 |
| 20260508013603 | 56 | 315 | 0.9 | 3.5 | 0.00 | 0.00 | 0.00 | 82 | 1018.2 |
| 20260508012704 | 57 | 312 | 2.6 | 3.5 | 0.00 | 0.00 | 0.00 | 82 | 1018.2 |
| 20260508011824 | 57 | 313 | 2.6 | 3.5 | 0.00 | 0.00 | 0.00 | 81 | 1018.1 |
| 20260508010903 | 57 | 310 | 1.7 | 3.5 | 0.00 | 0.00 | 0.00 | 80 | 1018.1 |
| 20260508010004 | 58 | 315 | 0.9 | 2.6 | 0.00 | 0.00 | 0.00 | 80 | 1018.2 |
| 20260508005404 | 58 | 319 | 0.9 | 5.2 | 0.00 | 0.00 | 0.00 | 80 | 1018.1 |
| 20260508004504 | 58 | 312 | 2.6 | 3.5 | 0.00 | 0.00 | 0.00 | 79 | 1017.9 |
| 20260508003604 | 58 | 318 | 1.7 | 3.5 | 0.00 | 0.00 | 0.00 | 79 | 1018.0 |
| 20260508002703 | 58 | 316 | 1.7 | 3.5 | 0.00 | 0.00 | 0.00 | 79 | 1017.8 |
| 20260508001803 | 58 | 311 | 3.5 | 5.2 | 0.00 | 0.00 | 0.00 | 79 | 1017.6 |
| 20260508000924 | 58 | 311 | 2.6 | 3.5 | 0.00 | 0.00 | 0.00 | 79 | 1017.9 |
| 20260508000024 | 59 | 320 | 1.7 | 5.2 | 0.00 | 0.00 | 0.00 | 78 | 1017.7 |
| 20260507235404 | 59 | 333 | 2.6 | 6.1 | 0.00 | 0.00 | 0.00 | 78 | 1017.7 |
| 20260507234502 | 59 | 334 | 0.9 | 6.1 | 0.00 | 0.00 | 0.00 | 78 | 1017.6 |
| 20260507233603 | 59 | 338 | 0.0 | 0.9 | 0.00 | 0.00 | 0.00 | 79 | 1018.0 |
| 20260507232702 | 59 | 327 | 0.9 | 2.6 | 0.00 | 0.00 | 0.00 | 78 | 1017.5 |
| 20260507231803 | 60 | 312 | 0.9 | 2.6 | 0.00 | 0.00 | 0.00 | 77 | 1017.7 |
| 20260507230902 | 59 | 0 | 0.0 | 0.0 | 0.00 | 0.00 | 0.00 | 78 | 1017.8 |
| 20260507230002 | 59 | 353 | 0.0 | 0.9 | 0.00 | 0.00 | 0.00 | 78 | 1017.6 |
| 20260507225402 | 59 | 351 | 0.9 | 2.6 | 0.00 | 0.00 | 0.00 | 77 | 1017.6 |
| 20260507224503 | 60 | 332 | 1.7 | 3.5 | 0.00 | 0.00 | 0.00 | 77 | 1017.7 |
| 20260507223602 | 60 | 310 | 2.6 | 3.5 | 0.00 | 0.00 | 0.00 | 76 | 1017.7 |
| 20260507222724 | 60 | 330 | 0.9 | 3.5 | 0.00 | 0.00 | 0.00 | 76 | 1017.7 |
| 20260507221802 | 60 | 318 | 1.7 | 5.2 | 0.00 | 0.00 | 0.00 | 75 | 1017.8 |
| 20260507220902 | 60 | 310 | 3.5 | 5.2 | 0.00 | 0.00 | 0.00 | 74 | 1017.7 |
| 20260507220003 | 61 | 310 | 2.6 | 5.2 | 0.00 | 0.00 | 0.00 | 75 | 1017.9 |
| 20260507215424 | 61 | 311 | 2.6 | 3.5 | 0.00 | 0.00 | 0.00 | 75 | 1018.0 |
| 20260507214523 | 61 | 314 | 2.6 | 6.1 | 0.00 | 0.00 | 0.00 | 75 | 1018.0 |
| 20260507213624 | 61 | 307 | 2.6 | 6.1 | 0.00 | 0.00 | 0.00 | 75 | 1018.0 |
| 20260507212702 | 61 | 310 | 1.7 | 5.2 | 0.00 | 0.00 | 0.00 | 75 | 1018.1 |
| 20260507211823 | 61 | 312 | 1.7 | 3.5 | 0.00 | 0.00 | 0.00 | 74 | 1018.0 |
| 20260507210902 | 62 | 313 | 2.6 | 6.1 | 0.00 | 0.00 | 0.00 | 73 | 1017.9 |
| 20260507210002 | 62 | 313 | 4.3 | 7.0 | 0.00 | 0.00 | 0.00 | 73 | 1018.1 |
| 20260507205402 | 62 | 312 | 3.5 | 7.0 | 0.00 | 0.00 | 0.00 | 73 | 1018.1 |
| 20260507204523 | 62 | 313 | 2.6 | 5.2 | 0.00 | 0.00 | 0.00 | 73 | 1018.1 |
| 20260507203602 | 62 | 311 | 3.5 | 5.2 | 0.00 | 0.00 | 0.00 | 74 | 1018.0 |
| 20260507202703 | 62 | 308 | 3.5 | 5.2 | 0.00 | 0.00 | 0.00 | 73 | 1018.1 |
| 20260507201803 | 62 | 307 | 3.5 | 6.1 | 0.00 | 0.00 | 0.00 | 72 | 1018.0 |
| 20260507200902 | 63 | 312 | 3.5 | 5.2 | 0.00 | 0.00 | 0.00 | 72 | 1018.0 |
| 20260507200003 | 63 | 315 | 3.5 | 6.1 | 0.00 | 0.00 | 0.00 | 72 | 1017.9 |
| 20260507195402 | 63 | 311 | 2.6 | 5.2 | 0.00 | 0.00 | 0.00 | 71 | 1017.8 |
| 20260507194502 | 63 | 309 | 3.5 | 7.0 | 0.00 | 0.00 | 0.00 | 71 | 1017.8 |
| 20260507193624 | 64 | 311 | 3.5 | 7.0 | 0.00 | 0.00 | 0.00 | 69 | 1018.0 |
| 20260507192703 | 64 | 309 | 5.2 | 8.7 | 0.00 | 0.00 | 0.00 | 68 | 1017.8 |
| 20260507191802 | 65 | 309 | 4.3 | 8.7 | 0.00 | 0.00 | 0.00 | 67 | 1018.0 |
| 20260507190902 | 65 | 313 | 2.6 | 6.1 | 0.00 | 0.00 | 0.00 | 66 | 1017.8 |
| 20260507190003 | 65 | 318 | 0.9 | 3.5 | 0.00 | 0.00 | 0.00 | 66 | 1017.7 |
| 20260507185402 | 65 | 317 | 2.6 | 5.2 | 0.00 | 0.00 | 0.00 | 66 | 1017.6 |
| 20260507184502 | 66 | 314 | 2.6 | 5.2 | 0.00 | 0.00 | 0.00 | 65 | 1017.8 |
| 20260507183602 | 66 | 314 | 2.6 | 5.2 | 0.00 | 0.00 | 0.00 | 65 | 1017.9 |
| 20260507182702 | 66 | 312 | 3.5 | 5.2 | 0.00 | 0.00 | 0.00 | 64 | 1017.8 |
| 20260507181803 | 67 | 312 | 2.6 | 5.2 | 0.00 | 0.00 | 0.00 | 64 | 1017.4 |
| 20260507180902 | 67 | 316 | 1.7 | 2.6 | 0.00 | 0.00 | 0.00 | 63 | 1017.4 |
| 20260507180003 | 67 | 320 | 2.6 | 3.5 | 0.00 | 0.00 | 0.00 | 63 | 1017.4 |
| 20260507175402 | 68 | 318 | 1.7 | 3.5 | 0.00 | 0.00 | 0.00 | 63 | 1017.3 |
| 20260507174502 | 68 | 319 | 0.9 | 2.6 | 0.00 | 0.00 | 0.00 | 62 | 1017.0 |
| 20260507173602 | 69 | 322 | 0.9 | 2.6 | 0.00 | 0.00 | 0.00 | 60 | 1017.0 |
| 20260507172702 | 69 | 323 | 0.9 | 2.6 | 0.00 | 0.00 | 0.00 | 59 | 1016.7 |
| 20260507171802 | 70 | 323 | 0.9 | 1.7 | 0.00 | 0.00 | 0.00 | 57 | 1016.4 |